| time (UTC) | temp F | wind direction | speed MPH | gust MPH | rain 1hr in | rain 24hr in | rain mn in | humidity % | barometer mb |
| 20260508060805 | 48 | 111 | 0.0 | 0.0 | 0.00 | 0.00 | 0.00 | 98 | 1016.5 |
| 20260508060303 | 48 | 158 | 1.0 | 1.0 | 0.00 | 0.00 | 0.00 | 98 | 1016.4 |
| 20260508055803 | 48 | 116 | 0.0 | 1.0 | 0.00 | 0.00 | 0.00 | 98 | 1016.4 |
| 20260508055301 | 48 | 113 | 0.0 | 0.0 | 0.00 | 0.00 | 0.00 | 98 | 1016.4 |
| 20260508054756 | 48 | 76 | 0.0 | 1.0 | 0.00 | 0.00 | 0.00 | 98 | 1016.5 |
| 20260508054255 | 48 | 135 | 0.0 | 1.0 | 0.00 | 0.00 | 0.00 | 98 | 1016.5 |
| 20260508053751 | 48 | 135 | 0.0 | 0.0 | 0.00 | 0.00 | 0.00 | 98 | 1016.3 |
| 20260508053249 | 48 | 120 | 0.0 | 1.0 | 0.00 | 0.00 | 0.00 | 98 | 1016.3 |
| 20260508052746 | 48 | 113 | 0.0 | 1.0 | 0.00 | 0.00 | 0.00 | 98 | 1016.2 |
| 20260508052243 | 49 | 157 | 0.0 | 0.0 | 0.00 | 0.00 | 0.00 | 98 | 1016.2 |
| 20260508051739 | 49 | 212 | 0.0 | 0.0 | 0.00 | 0.00 | 0.00 | 98 | 1016.4 |
| 20260508051234 | 49 | 141 | 0.0 | 1.0 | 0.00 | 0.00 | 0.00 | 98 | 1016.3 |
| 20260508050731 | 49 | 113 | 0.0 | 1.0 | 0.00 | 0.00 | 0.00 | 98 | 1016.2 |
| 20260508050229 | 49 | 121 | 0.0 | 0.0 | 0.00 | 0.00 | 0.00 | 98 | 1016.2 |
| 20260508045724 | 49 | 209 | 0.0 | 0.0 | 0.00 | 0.00 | 0.00 | 98 | 1016.0 |
| 20260508045222 | 49 | 48 | 0.0 | 2.0 | 0.00 | 0.00 | 0.00 | 98 | 1016.1 |
| 20260508044719 | 49 | 59 | 0.0 | 2.0 | 0.00 | 0.00 | 0.00 | 98 | 1016.0 |
| 20260508044216 | 49 | 119 | 0.0 | 1.0 | 0.00 | 0.00 | 0.00 | 98 | 1016.0 |
| 20260508043712 | 49 | 136 | 1.0 | 2.0 | 0.00 | 0.00 | 0.00 | 98 | 1016.2 |
| 20260508043210 | 49 | 131 | 0.0 | 1.0 | 0.00 | 0.00 | 0.00 | 98 | 1015.9 |
| 20260508042706 | 50 | 124 | 0.0 | 1.0 | 0.00 | 0.00 | 0.00 | 98 | 1015.8 |
| 20260508042204 | 50 | 119 | 0.0 | 1.0 | 0.00 | 0.00 | 0.00 | 98 | 1015.8 |
| 20260508041659 | 50 | 116 | 0.0 | 1.0 | 0.00 | 0.00 | 0.00 | 98 | 1015.8 |
| 20260508041157 | 50 | 103 | 0.0 | 1.0 | 0.00 | 0.00 | 0.00 | 98 | 1015.7 |
| 20260508040653 | 50 | 116 | 0.0 | 2.0 | 0.00 | 0.00 | 0.00 | 98 | 1015.7 |
| 20260508040151 | 50 | 124 | 0.0 | 1.0 | 0.00 | 0.00 | 0.00 | 98 | 1015.7 |
| 20260508035648 | 50 | 126 | 1.0 | 1.0 | 0.00 | 0.48 | 0.48 | 98 | 1015.6 |
| 20260508035145 | 50 | 128 | 1.0 | 1.0 | 0.00 | 0.48 | 0.48 | 98 | 1015.6 |
| 20260508034642 | 50 | 74 | 0.0 | 1.0 | 0.00 | 0.48 | 0.48 | 97 | 1015.6 |
| 20260508034138 | 50 | 96 | 1.0 | 2.0 | 0.00 | 0.48 | 0.48 | 97 | 1015.7 |
| 20260508033636 | 50 | 94 | 1.0 | 2.0 | 0.00 | 0.48 | 0.48 | 97 | 1015.7 |
| 20260508033134 | 51 | 102 | 1.0 | 2.0 | 0.00 | 0.48 | 0.48 | 97 | 1015.8 |
| 20260508032630 | 51 | 106 | 1.0 | 2.0 | 0.00 | 0.48 | 0.48 | 97 | 1015.5 |
| 20260508032128 | 51 | 84 | 1.0 | 2.0 | 0.00 | 0.48 | 0.48 | 97 | 1015.4 |
| 20260508031625 | 51 | 92 | 1.0 | 2.0 | 0.00 | 0.48 | 0.48 | 97 | 1015.3 |
| 20260508031121 | 51 | 116 | 0.0 | 1.0 | 0.00 | 0.48 | 0.48 | 97 | 1015.3 |
| 20260508030618 | 51 | 66 | 0.0 | 1.0 | 0.00 | 0.48 | 0.48 | 97 | 1015.2 |
| 20260508030116 | 51 | 123 | 0.0 | 2.0 | 0.00 | 0.48 | 0.48 | 97 | 1015.4 |
| 20260508025612 | 52 | 134 | 1.0 | 1.0 | 0.00 | 0.48 | 0.48 | 97 | 1015.2 |
| 20260508025109 | 52 | 121 | 0.0 | 1.0 | 0.00 | 0.48 | 0.48 | 97 | 1015.4 |
| 20260508024604 | 52 | 130 | 0.0 | 0.0 | 0.00 | 0.48 | 0.48 | 97 | 1015.4 |
| 20260508024102 | 52 | 48 | 0.0 | 2.0 | 0.00 | 0.48 | 0.48 | 97 | 1015.4 |
| 20260508023558 | 52 | 61 | 1.0 | 1.0 | 0.00 | 0.48 | 0.48 | 97 | 1015.2 |
| 20260508023056 | 52 | 48 | 0.0 | 0.0 | 0.00 | 0.48 | 0.48 | 97 | 1015.1 |
| 20260508022551 | 52 | 116 | 0.0 | 2.0 | 0.00 | 0.48 | 0.48 | 97 | 1015.0 |
| 20260508022049 | 52 | 121 | 0.0 | 2.0 | 0.00 | 0.48 | 0.48 | 97 | 1014.9 |
| 20260508021544 | 52 | 124 | 0.0 | 1.0 | 0.00 | 0.48 | 0.48 | 96 | 1014.9 |
| 20260508021040 | 53 | 128 | 1.0 | 1.0 | 0.00 | 0.48 | 0.48 | 96 | 1014.9 |
| 20260508020538 | 53 | 122 | 1.0 | 2.0 | 0.00 | 0.48 | 0.48 | 96 | 1014.7 |
| 20260508020035 | 53 | 137 | 1.0 | 2.0 | 0.00 | 0.48 | 0.48 | 96 | 1014.4 |
| 20260508015533 | 53 | 126 | 0.0 | 2.0 | 0.00 | 0.48 | 0.48 | 96 | 1014.4 |
| 20260508015030 | 53 | 126 | 1.0 | 2.0 | 0.00 | 0.48 | 0.48 | 96 | 1014.4 |
| 20260508014526 | 53 | 129 | 0.0 | 2.0 | 0.00 | 0.48 | 0.48 | 95 | 1014.3 |
| 20260508014022 | 54 | 110 | 1.0 | 2.0 | 0.00 | 0.48 | 0.48 | 95 | 1014.0 |
| 20260508013518 | 54 | 129 | 0.0 | 2.0 | 0.00 | 0.48 | 0.48 | 95 | 1013.9 |
| 20260508013016 | 54 | 124 | 0.0 | 2.0 | 0.00 | 0.48 | 0.48 | 95 | 1014.0 |
| 20260508012513 | 54 | 151 | 0.0 | 2.0 | 0.00 | 0.48 | 0.48 | 95 | 1013.9 |
| 20260508012010 | 54 | 113 | 0.0 | 1.0 | 0.00 | 0.48 | 0.48 | 95 | 1013.7 |
| 20260508011509 | 55 | 108 | 1.0 | 2.0 | 0.00 | 0.48 | 0.48 | 94 | 1013.7 |
| 20260508011006 | 55 | 117 | 2.0 | 2.0 | 0.00 | 0.48 | 0.48 | 94 | 1013.6 |
| 20260508010502 | 55 | 89 | 1.0 | 2.0 | 0.00 | 0.48 | 0.48 | 94 | 1013.3 |
| 20260508010000 | 55 | 88 | 1.0 | 2.0 | 0.00 | 0.48 | 0.48 | 94 | 1013.4 |
| 20260508005456 | 56 | 89 | 1.0 | 2.0 | 0.00 | 0.48 | 0.48 | 94 | 1013.6 |
| 20260508004953 | 56 | 105 | 0.0 | 1.0 | 0.00 | 0.48 | 0.48 | 93 | 1013.6 |
| 20260508004449 | 56 | 80 | 0.0 | 1.0 | 0.00 | 0.48 | 0.48 | 93 | 1013.5 |
| 20260508003946 | 56 | 128 | 1.0 | 2.0 | 0.00 | 0.48 | 0.48 | 93 | 1013.5 |
| 20260508003443 | 56 | 88 | 2.0 | 2.0 | 0.00 | 0.48 | 0.48 | 93 | 1013.5 |
| 20260508002940 | 56 | 87 | 1.0 | 1.0 | 0.00 | 0.48 | 0.48 | 93 | 1013.7 |
| 20260508002436 | 56 | 111 | 1.0 | 2.0 | 0.00 | 0.48 | 0.48 | 92 | 1013.6 |
| 20260508001932 | 56 | 91 | 1.0 | 2.0 | 0.00 | 0.48 | 0.48 | 92 | 1013.7 |
| 20260508001429 | 56 | 103 | 0.0 | 1.0 | 0.00 | 0.48 | 0.48 | 92 | 1013.6 |
| 20260508000925 | 56 | 62 | 1.0 | 2.0 | 0.00 | 0.48 | 0.48 | 92 | 1013.6 |
| 20260508000421 | 56 | 103 | 0.0 | 2.0 | 0.00 | 0.48 | 0.48 | 92 | 1013.7 |
| 20260507235918 | 56 | 62 | 0.0 | 1.0 | 0.00 | 0.48 | 0.48 | 92 | 1013.3 |
| 20260507235415 | 56 | 89 | 0.0 | 1.0 | 0.00 | 0.48 | 0.48 | 92 | 1013.4 |
| 20260507234912 | 57 | 134 | 0.0 | 1.0 | 0.00 | 0.48 | 0.48 | 92 | 1013.3 |
| 20260507234409 | 57 | 143 | 1.0 | 1.0 | 0.00 | 0.48 | 0.48 | 92 | 1013.1 |
| 20260507233905 | 57 | 101 | 1.0 | 2.0 | 0.00 | 0.48 | 0.48 | 91 | 1013.2 |
| 20260507233403 | 57 | 77 | 1.0 | 2.0 | 0.00 | 0.48 | 0.48 | 91 | 1012.9 |
| 20260507232901 | 57 | 77 | 2.0 | 4.0 | 0.00 | 0.48 | 0.48 | 91 | 1012.7 |
| 20260507232357 | 57 | 61 | 2.0 | 2.0 | 0.00 | 0.48 | 0.48 | 91 | 1012.9 |
| 20260507231855 | 57 | 83 | 1.0 | 2.0 | 0.00 | 0.48 | 0.48 | 91 | 1012.8 |
| 20260507231351 | 57 | 93 | 0.0 | 2.0 | 0.00 | 0.48 | 0.48 | 91 | 1012.6 |
| 20260507230847 | 57 | 107 | 2.0 | 2.0 | 0.00 | 0.48 | 0.48 | 91 | 1012.6 |
| 20260507230345 | 57 | 68 | 2.0 | 4.0 | 0.00 | 0.48 | 0.48 | 91 | 1012.5 |
| 20260507225844 | 57 | 68 | 3.0 | 3.0 | 0.00 | 0.48 | 0.48 | 91 | 1012.4 |
| 20260507225341 | 57 | 52 | 1.0 | 3.0 | 0.00 | 0.48 | 0.48 | 92 | 1012.3 |
| 20260507224837 | 57 | 101 | 1.0 | 3.0 | 0.00 | 0.48 | 0.48 | 91 | 1012.3 |
| 20260507224334 | 57 | 108 | 2.0 | 5.0 | 0.00 | 0.48 | 0.48 | 92 | 1012.4 |
| 20260507223830 | 57 | 76 | 4.0 | 4.0 | 0.00 | 0.48 | 0.48 | 93 | 1012.2 |
| 20260507223326 | 57 | 84 | 2.0 | 3.0 | 0.00 | 0.48 | 0.48 | 93 | 1012.2 |
| 20260507222824 | 57 | 63 | 2.0 | 3.0 | 0.00 | 0.48 | 0.48 | 93 | 1012.3 |
| 20260507222320 | 57 | 56 | 1.0 | 2.0 | 0.00 | 0.48 | 0.48 | 93 | 1012.4 |
| 20260507221817 | 56 | 62 | 3.0 | 5.0 | 0.00 | 0.48 | 0.48 | 93 | 1012.0 |
| 20260507221313 | 57 | 115 | 1.0 | 3.0 | 0.00 | 0.48 | 0.48 | 93 | 1011.9 |
| 20260507220809 | 57 | 87 | 1.0 | 4.0 | 0.00 | 0.48 | 0.48 | 93 | 1011.9 |
| 20260507220308 | 57 | 69 | 5.0 | 5.0 | 0.00 | 0.48 | 0.48 | 93 | 1012.0 |
| 20260507215804 | 57 | 105 | 1.0 | 3.0 | 0.00 | 0.48 | 0.48 | 93 | 1011.9 |
| 20260507215301 | 57 | 120 | 2.0 | 4.0 | 0.00 | 0.48 | 0.48 | 93 | 1012.0 |
| 20260507214758 | 57 | 122 | 2.0 | 3.0 | 0.00 | 0.48 | 0.48 | 94 | 1011.8 |
| 20260507214256 | 57 | 73 | 4.0 | 4.0 | 0.00 | 0.48 | 0.48 | 94 | 1011.9 |
| 20260507213750 | 57 | 116 | 0.0 | 4.0 | 0.00 | 0.48 | 0.48 | 93 | 1011.9 |
| 20260507213248 | 57 | 98 | 1.0 | 5.0 | 0.00 | 0.48 | 0.48 | 93 | 1011.9 |
| 20260507212744 | 57 | 96 | 3.0 | 5.0 | 0.00 | 0.48 | 0.48 | 94 | 1011.6 |
| 20260507212241 | 57 | 62 | 2.0 | 4.0 | 0.00 | 0.48 | 0.48 | 94 | 1011.5 |
| 20260507211737 | 56 | 85 | 2.0 | 5.0 | 0.00 | 0.48 | 0.48 | 94 | 1011.7 |
| 20260507211234 | 57 | 61 | 4.0 | 5.0 | 0.00 | 0.48 | 0.48 | 94 | 1011.8 |
| 20260507210731 | 57 | 67 | 4.0 | 4.0 | 0.00 | 0.48 | 0.48 | 94 | 1011.8 |
| 20260507210228 | 57 | 86 | 1.0 | 4.0 | 0.00 | 0.48 | 0.48 | 94 | 1012.0 |
| 20260507205724 | 57 | 99 | 2.0 | 4.0 | 0.00 | 0.48 | 0.48 | 95 | 1011.7 |
| 20260507205221 | 57 | 54 | 2.0 | 5.0 | 0.00 | 0.48 | 0.48 | 95 | 1011.7 |
| 20260507204717 | 57 | 91 | 2.0 | 5.0 | 0.00 | 0.48 | 0.48 | 94 | 1011.8 |
| 20260507204215 | 57 | 76 | 2.0 | 4.0 | 0.00 | 0.48 | 0.48 | 94 | 1011.8 |
| 20260507203713 | 58 | 51 | 0.0 | 4.0 | 0.00 | 0.48 | 0.48 | 95 | 1011.7 |
| 20260507203210 | 57 | 120 | 1.0 | 3.0 | 0.00 | 0.48 | 0.48 | 96 | 1011.6 |
| 20260507202706 | 57 | 75 | 2.0 | 4.0 | 0.12 | 0.48 | 0.48 | 95 | 1011.5 |
| 20260507202202 | 57 | 92 | 2.0 | 4.0 | 0.28 | 0.48 | 0.48 | 95 | 1011.8 |
| 20260507201657 | 56 | 2 | 0.0 | 5.0 | 0.31 | 0.46 | 0.46 | 95 | 1011.8 |
| 20260507201154 | 56 | 95 | 2.0 | 4.0 | 0.28 | 0.43 | 0.43 | 94 | 1011.8 |
| 20260507200650 | 56 | 80 | 4.0 | 4.0 | 0.24 | 0.41 | 0.41 | 93 | 1012.0 |
| 20260507200146 | 57 | 44 | 0.0 | 3.0 | 0.19 | 0.38 | 0.38 | 92 | 1012.2 |
| 20260507195643 | 57 | 106 | 2.0 | 4.0 | 0.05 | 0.36 | 0.36 | 91 | 1011.7 |
| 20260507195140 | 57 | 81 | 2.0 | 5.0 | 0.00 | 0.35 | 0.35 | 89 | 1011.4 |
| 20260507194637 | 57 | 80 | 3.0 | 5.0 | 0.00 | 0.35 | 0.35 | 88 | 1011.8 |
| 20260507194132 | 58 | 39 | 3.0 | 6.0 | 0.00 | 0.35 | 0.35 | 88 | 1012.0 |
| 20260507193630 | 58 | 79 | 4.0 | 4.0 | 0.00 | 0.35 | 0.35 | 89 | 1011.6 |
| 20260507193127 | 58 | 57 | 3.0 | 4.0 | 0.00 | 0.35 | 0.35 | 88 | 1011.7 |
| 20260507192623 | 59 | 97 | 2.0 | 6.0 | 0.00 | 0.35 | 0.35 | 88 | 1011.6 |
| 20260507192120 | 58 | 98 | 2.0 | 5.0 | 0.00 | 0.35 | 0.35 | 88 | 1011.4 |
| 20260507191615 | 59 | 74 | 6.0 | 7.0 | 0.00 | 0.35 | 0.35 | 88 | 1011.5 |
| 20260507191112 | 59 | 66 | 4.0 | 6.0 | 0.00 | 0.35 | 0.35 | 87 | 1011.5 |
| 20260507190610 | 60 | 80 | 4.0 | 6.0 | 0.00 | 0.35 | 0.35 | 87 | 1011.4 |
| 20260507190109 | 60 | 79 | 3.0 | 4.0 | 0.00 | 0.35 | 0.35 | 89 | 1011.6 |
| 20260507185607 | 59 | 102 | 2.0 | 4.0 | 0.00 | 0.35 | 0.35 | 89 | 1011.7 |
| 20260507185103 | 59 | 102 | 3.0 | 6.0 | 0.00 | 0.35 | 0.35 | 89 | 1011.6 |
| 20260507184601 | 59 | 59 | 3.0 | 4.0 | 0.00 | 0.35 | 0.35 | 89 | 1011.6 |
| 20260507184059 | 59 | 66 | 3.0 | 7.0 | 0.00 | 0.35 | 0.35 | 90 | 1011.6 |
| 20260507183554 | 59 | 59 | 4.0 | 5.0 | 0.00 | 0.35 | 0.35 | 90 | 1011.6 |
| 20260507183052 | 59 | 72 | 3.0 | 5.0 | 0.00 | 0.35 | 0.35 | 90 | 1011.7 |
| 20260507182548 | 59 | 79 | 3.0 | 4.0 | 0.00 | 0.35 | 0.35 | 90 | 1011.9 |
| 20260507182044 | 59 | 52 | 4.0 | 8.0 | 0.00 | 0.35 | 0.35 | 90 | 1011.9 |
| 20260507181541 | 60 | 71 | 5.0 | 6.0 | 0.00 | 0.35 | 0.35 | 91 | 1011.8 |
| 20260507181037 | 60 | 81 | 2.0 | 4.0 | 0.00 | 0.35 | 0.35 | 92 | 1011.7 |
| 20260507180533 | 59 | 99 | 2.0 | 7.0 | 0.00 | 0.35 | 0.35 | 92 | 1011.3 |
| 20260507180031 | 60 | 83 | 3.0 | 8.0 | 0.00 | 0.35 | 0.35 | 92 | 1011.5 |
| 20260507175527 | 60 | 70 | 3.0 | 7.0 | 0.00 | 0.35 | 0.35 | 92 | 1011.5 |
| 20260507175025 | 60 | 84 | 2.0 | 5.0 | 0.00 | 0.35 | 0.35 | 92 | 1011.5 |
| 20260507174521 | 60 | 82 | 3.0 | 4.0 | 0.00 | 0.35 | 0.35 | 91 | 1011.8 |
| 20260507174019 | 60 | 53 | 5.0 | 8.0 | 0.00 | 0.35 | 0.35 | 91 | 1011.9 |
| 20260507173516 | 61 | 43 | 0.0 | 6.0 | 0.00 | 0.35 | 0.35 | 91 | 1012.0 |
| 20260507173013 | 61 | 59 | 3.0 | 6.0 | 0.00 | 0.35 | 0.35 | 91 | 1012.0 |
| 20260507172509 | 61 | 79 | 2.0 | 5.0 | 0.00 | 0.35 | 0.35 | 90 | 1011.9 |
| 20260507172006 | 62 | 76 | 2.0 | 4.0 | 0.00 | 0.35 | 0.35 | 91 | 1011.7 |
| 20260507171501 | 62 | 78 | 5.0 | 5.0 | 0.00 | 0.35 | 0.35 | 91 | 1011.7 |
| 20260507171000 | 63 | 71 | 2.0 | 4.0 | 0.00 | 0.35 | 0.35 | 91 | 1011.7 |
| 20260507170455 | 63 | 56 | 3.0 | 5.0 | 0.00 | 0.35 | 0.35 | 91 | 1011.8 |
| 20260507165952 | 64 | 92 | 2.0 | 3.0 | 0.00 | 0.35 | 0.35 | 91 | 1011.6 |
| 20260507165448 | 64 | 35 | 2.0 | 4.0 | 0.00 | 0.35 | 0.35 | 90 | 1011.6 |
| 20260507164944 | 64 | 92 | 1.0 | 5.0 | 0.00 | 0.35 | 0.35 | 90 | 1011.4 |
| 20260507164441 | 64 | 88 | 1.0 | 6.0 | 0.00 | 0.35 | 0.35 | 90 | 1011.3 |
| 20260507163938 | 64 | 59 | 6.0 | 9.0 | 0.00 | 0.35 | 0.35 | 90 | 1011.3 |
| 20260507163435 | 64 | 39 | 4.0 | 5.0 | 0.00 | 0.35 | 0.35 | 91 | 1011.1 |
| 20260507162932 | 64 | 64 | 2.0 | 5.0 | 0.00 | 0.35 | 0.35 | 91 | 1011.1 |
| 20260507162427 | 64 | 84 | 3.0 | 6.0 | 0.00 | 0.35 | 0.35 | 91 | 1010.9 |
| 20260507161925 | 64 | 82 | 2.0 | 6.0 | 0.00 | 0.35 | 0.35 | 92 | 1011.1 |
| 20260507161421 | 65 | 61 | 5.0 | 5.0 | 0.00 | 0.35 | 0.35 | 92 | 1011.2 |
| 20260507160918 | 67 | 97 | 3.0 | 6.0 | 0.00 | 0.35 | 0.35 | 95 | 1011.3 |
| 20260507160414 | 66 | 109 | 0.0 | 2.0 | 0.00 | 0.35 | 0.35 | 96 | 1011.2 |
| 20260507155910 | 65 | 340 | 1.0 | 1.0 | 0.00 | 0.35 | 0.35 | 96 | 1011.3 |
| 20260507155406 | 65 | 37 | 0.0 | 2.0 | 0.00 | 0.35 | 0.35 | 96 | 1011.5 |
| 20260507154903 | 65 | 106 | 1.0 | 1.0 | 0.00 | 0.35 | 0.35 | 96 | 1011.7 |
| 20260507154400 | 65 | 141 | 0.0 | 1.0 | 0.00 | 0.35 | 0.35 | 97 | 1011.6 |
| 20260507153857 | 65 | 136 | 1.0 | 2.0 | 0.00 | 0.35 | 0.35 | 97 | 1011.9 |
| 20260507153619 | 64 | 284 | 0.0 | 2.0 | 0.00 | 0.35 | 0.35 | 97 | 0.1 |
| 20260507153353 | 64 | 284 | 0.0 | 2.0 | 0.00 | 0.35 | 0.35 | 97 | 1012.2 |
| 20260507153215 | 65 | 333 | 0.0 | 2.0 | 0.00 | 0.35 | 0.35 | 97 | 1012.0 |
| 20260507152850 | 65 | 333 | 0.0 | 2.0 | 0.00 | 0.35 | 0.35 | 97 | 1012.0 |
| 20260507152556 | 65 | 138 | 1.0 | 2.0 | 0.00 | 0.35 | 0.35 | 97 | 1012.0 |
| 20260507152346 | 65 | 147 | 0.0 | 1.0 | 0.00 | 0.35 | 0.35 | 97 | 1011.9 |
| 20260507151842 | 65 | 138 | 1.0 | 2.0 | 0.00 | 0.35 | 0.35 | 97 | 1012.0 |
| 20260507151338 | 65 | 157 | 0.0 | 1.0 | 0.00 | 0.35 | 0.35 | 98 | 1012.0 |
| 20260507150836 | 64 | 261 | 1.0 | 1.0 | 0.00 | 0.35 | 0.35 | 98 | 1012.3 |
| 20260507150332 | 64 | 277 | 2.0 | 2.0 | 0.00 | 0.35 | 0.35 | 98 | 1012.4 |
| 20260507145829 | 64 | 254 | 0.0 | 2.0 | 0.00 | 0.35 | 0.35 | 98 | 1012.8 |
| 20260507145325 | 64 | 186 | 0.0 | 3.0 | 0.02 | 0.35 | 0.35 | 98 | 1012.2 |
| 20260507144822 | 64 | 142 | 0.0 | 1.0 | 0.05 | 0.35 | 0.35 | 98 | 1011.8 |
| 20260507144320 | 64 | 151 | 0.0 | 0.0 | 0.05 | 0.35 | 0.35 | 98 | 1011.6 |
| 20260507143816 | 64 | 140 | 1.0 | 2.0 | 0.02 | 0.34 | 0.34 | 98 | 1011.7 |
| 20260507143313 | 64 | 140 | 0.0 | 1.0 | 0.00 | 0.34 | 0.34 | 98 | 1011.7 |
| 20260507142809 | 64 | 135 | 0.0 | 1.0 | 0.02 | 0.34 | 0.34 | 98 | 1011.8 |
| 20260507142307 | 63 | 129 | 0.0 | 1.0 | 0.02 | 0.34 | 0.34 | 98 | 1011.6 |
| 20260507141803 | 63 | 129 | 0.0 | 1.0 | 0.00 | 0.34 | 0.34 | 98 | 1011.7 |
| 20260507141300 | 63 | 142 | 0.0 | 1.0 | 0.00 | 0.34 | 0.34 | 98 | 1011.6 |
| 20260507140755 | 64 | 220 | 0.0 | 1.0 | 0.02 | 0.34 | 0.34 | 98 | 1012.0 |
| 20260507140253 | 63 | 142 | 0.0 | 0.0 | 0.05 | 0.34 | 0.34 | 98 | 1012.0 |
| 20260507135750 | 63 | 357 | 1.0 | 2.0 | 0.05 | 0.33 | 0.33 | 98 | 1011.8 |
| 20260507135247 | 63 | 335 | 0.0 | 2.0 | 0.02 | 0.32 | 0.32 | 98 | 1011.6 |
| 20260507134743 | 63 | 98 | 2.0 | 2.0 | 0.12 | 0.32 | 0.32 | 98 | 1011.1 |
| 20260507134240 | 63 | 52 | 0.0 | 1.0 | 0.17 | 0.32 | 0.32 | 98 | 1011.3 |
| 20260507133736 | 63 | 111 | 2.0 | 2.0 | 0.12 | 0.30 | 0.30 | 98 | 1011.2 |
| 20260507133233 | 63 | 117 | 1.0 | 2.0 | 0.07 | 0.29 | 0.29 | 98 | 1011.2 |
| 20260507132730 | 63 | 138 | 1.0 | 2.0 | 0.07 | 0.28 | 0.28 | 98 | 1011.5 |
| 20260507132227 | 63 | 119 | 0.0 | 1.0 | 0.12 | 0.28 | 0.28 | 98 | 1011.7 |
| 20260507131724 | 63 | 168 | 1.0 | 3.0 | 0.19 | 0.27 | 0.27 | 98 | 1011.8 |
| 20260507131221 | 63 | 186 | 0.0 | 2.0 | 0.31 | 0.26 | 0.26 | 98 | 1012.0 |
| 20260507130718 | 63 | 213 | 0.0 | 2.0 | 0.28 | 0.23 | 0.23 | 98 | 1012.2 |
| 20260507130216 | 63 | 89 | 0.0 | 3.0 | 0.31 | 0.20 | 0.20 | 98 | 1012.4 |
| 20260507125714 | 63 | 128 | 0.0 | 2.0 | 0.31 | 0.18 | 0.18 | 98 | 1012.6 |
| 20260507125212 | 63 | 26 | 2.0 | 2.0 | 0.19 | 0.15 | 0.15 | 98 | 1012.6 |
| 20260507124708 | 63 | 166 | 0.0 | 2.0 | 0.09 | 0.13 | 0.13 | 98 | 1012.9 |
| 20260507124205 | 63 | 143 | 0.0 | 2.0 | 0.05 | 0.12 | 0.12 | 98 | 1013.1 |
| 20260507123703 | 63 | 228 | 0.0 | 1.0 | 0.05 | 0.11 | 0.11 | 98 | 1013.0 |
| 20260507123200 | 63 | 282 | 1.0 | 2.0 | 0.05 | 0.11 | 0.11 | 98 | 1012.9 |
| 20260507122655 | 63 | 271 | 0.0 | 2.0 | 0.02 | 0.11 | 0.11 | 98 | 1012.5 |
| 20260507122151 | 63 | 182 | 1.0 | 2.0 | 0.02 | 0.10 | 0.10 | 98 | 1012.5 |
| 20260507121647 | 63 | 191 | 1.0 | 2.0 | 0.02 | 0.10 | 0.10 | 98 | 1012.4 |
| 20260507121143 | 63 | 44 | 0.0 | 2.0 | 0.02 | 0.10 | 0.10 | 98 | 1012.5 |
| 20260507120640 | 63 | 155 | 0.0 | 3.0 | 0.07 | 0.10 | 0.10 | 98 | 1012.6 |
| 20260507120136 | 63 | 118 | 2.0 | 2.0 | 0.07 | 0.09 | 0.09 | 98 | 1012.5 |
| 20260507115633 | 63 | 217 | 1.0 | 2.0 | 0.07 | 0.09 | 0.09 | 98 | 1012.6 |
| 20260507115128 | 63 | 3 | 0.0 | 2.0 | 0.00 | 0.07 | 0.07 | 98 | 1012.5 |
| 20260507114624 | 63 | 35 | 2.0 | 4.0 | 0.00 | 0.07 | 0.07 | 98 | 1012.4 |
| 20260507114122 | 63 | 346 | 1.0 | 3.0 | 0.00 | 0.07 | 0.07 | 98 | 1012.3 |
| 20260507113619 | 64 | 345 | 3.0 | 3.0 | 0.00 | 0.07 | 0.07 | 98 | 1012.0 |
| 20260507113116 | 64 | 38 | 0.0 | 2.0 | 0.00 | 0.07 | 0.07 | 98 | 1012.1 |
| 20260507112614 | 64 | 327 | 0.0 | 1.0 | 0.02 | 0.07 | 0.07 | 98 | 1012.2 |
| 20260507112110 | 64 | 64 | 0.0 | 0.0 | 0.02 | 0.07 | 0.07 | 98 | 1012.1 |
| 20260507111608 | 63 | 134 | 0.0 | 2.0 | 0.00 | 0.07 | 0.07 | 98 | 1012.1 |
| 20260507111104 | 63 | 137 | 0.0 | 2.0 | 0.02 | 0.07 | 0.07 | 98 | 1011.9 |
| 20260507110601 | 63 | 105 | 0.0 | 2.0 | 0.05 | 0.07 | 0.07 | 98 | 1011.9 |
| 20260507110057 | 63 | 135 | 2.0 | 2.0 | 0.05 | 0.07 | 0.07 | 98 | 1011.7 |
| 20260507105554 | 63 | 134 | 1.0 | 2.0 | 0.02 | 0.06 | 0.06 | 98 | 1012.1 |
| 20260507105050 | 63 | 123 | 0.0 | 2.0 | 0.00 | 0.06 | 0.06 | 98 | 1012.1 |
| 20260507104548 | 63 | 133 | 0.0 | 2.0 | 0.00 | 0.06 | 0.06 | 98 | 1012.1 |
| 20260507104044 | 63 | 162 | 1.0 | 2.0 | 0.00 | 0.06 | 0.06 | 98 | 1012.2 |
| 20260507103540 | 63 | 147 | 0.0 | 2.0 | 0.00 | 0.06 | 0.06 | 98 | 1011.9 |
| 20260507103037 | 63 | 111 | 0.0 | 2.0 | 0.00 | 0.06 | 0.06 | 98 | 1011.9 |
| 20260507102533 | 63 | 146 | 0.0 | 2.0 | 0.00 | 0.06 | 0.06 | 98 | 1011.8 |
| 20260507102031 | 63 | 199 | 0.0 | 2.0 | 0.00 | 0.06 | 0.06 | 98 | 1011.9 |
| 20260507101525 | 63 | 141 | 0.0 | 2.0 | 0.00 | 0.06 | 0.06 | 98 | 1011.8 |
| 20260507101022 | 63 | 130 | 1.0 | 2.0 | 0.00 | 0.06 | 0.06 | 98 | 1011.9 |
| 20260507100519 | 63 | 218 | 0.0 | 1.0 | 0.00 | 0.06 | 0.06 | 98 | 1011.9 |
| 20260507100017 | 63 | 190 | 0.0 | 2.0 | 0.00 | 0.06 | 0.06 | 98 | 1012.0 |
| 20260507095515 | 63 | 296 | 1.0 | 1.0 | 0.00 | 0.06 | 0.06 | 98 | 1012.0 |
| 20260507095011 | 63 | 149 | 0.0 | 2.0 | 0.00 | 0.06 | 0.06 | 98 | 1011.8 |
| 20260507094507 | 63 | 140 | 0.0 | 2.0 | 0.00 | 0.06 | 0.06 | 98 | 1012.2 |
| 20260507094005 | 63 | 213 | 1.0 | 2.0 | 0.00 | 0.06 | 0.06 | 98 | 1012.4 |
| 20260507093502 | 63 | 260 | 2.0 | 2.0 | 0.00 | 0.06 | 0.06 | 98 | 1012.1 |
| 20260507093001 | 63 | 155 | 0.0 | 1.0 | 0.02 | 0.06 | 0.06 | 98 | 1012.1 |
| 20260507092456 | 63 | 7 | 0.0 | 2.0 | 0.05 | 0.06 | 0.06 | 98 | 1011.9 |
| 20260507091953 | 63 | 26 | 1.0 | 2.0 | 0.05 | 0.06 | 0.06 | 97 | 1011.9 |
| 20260507091450 | 63 | 135 | 0.0 | 2.0 | 0.02 | 0.05 | 0.05 | 97 | 1012.1 |
| 20260507090946 | 63 | 25 | 1.0 | 2.0 | 0.02 | 0.05 | 0.05 | 97 | 1012.6 |
| 20260507090442 | 63 | 241 | 0.0 | 1.0 | 0.02 | 0.05 | 0.05 | 97 | 1012.4 |
| 20260507085938 | 63 | 157 | 0.0 | 2.0 | 0.00 | 0.04 | 0.04 | 97 | 1011.9 |
| 20260507085436 | 63 | 141 | 0.0 | 1.0 | 0.00 | 0.04 | 0.04 | 97 | 1011.8 |
| 20260507084933 | 63 | 149 | 1.0 | 1.0 | 0.00 | 0.04 | 0.04 | 97 | 1011.7 |
| 20260507084430 | 63 | 140 | 0.0 | 3.0 | 0.00 | 0.04 | 0.04 | 97 | 1011.3 |
| 20260507083927 | 63 | 121 | 2.0 | 3.0 | 0.00 | 0.04 | 0.04 | 97 | 1011.3 |
| 20260507083423 | 63 | 168 | 3.0 | 4.0 | 0.00 | 0.04 | 0.04 | 97 | 1011.4 |
| 20260507082919 | 63 | 107 | 2.0 | 3.0 | 0.00 | 0.04 | 0.04 | 97 | 1011.8 |
| 20260507082415 | 63 | 157 | 2.0 | 3.0 | 0.00 | 0.04 | 0.04 | 97 | 1011.8 |
| 20260507081912 | 63 | 147 | 2.0 | 2.0 | 0.00 | 0.04 | 0.04 | 97 | 1012.1 |
| 20260507081408 | 63 | 116 | 1.0 | 2.0 | 0.00 | 0.04 | 0.04 | 97 | 1011.8 |
| 20260507080905 | 63 | 139 | 2.0 | 2.0 | 0.00 | 0.04 | 0.04 | 97 | 1011.9 |
| 20260507080401 | 63 | 171 | 0.0 | 2.0 | 0.00 | 0.04 | 0.04 | 97 | 1012.3 |
| 20260507075857 | 63 | 174 | 1.0 | 2.0 | 0.00 | 0.04 | 0.04 | 97 | 1012.1 |
| 20260507075353 | 63 | 170 | 0.0 | 2.0 | 0.00 | 0.04 | 0.04 | 97 | 1012.1 |
| 20260507074850 | 63 | 126 | 2.0 | 3.0 | 0.02 | 0.04 | 0.04 | 97 | 1012.2 |
| 20260507074347 | 63 | 105 | 1.0 | 3.0 | 0.07 | 0.04 | 0.04 | 97 | 1012.5 |
| 20260507073844 | 63 | 141 | 2.0 | 3.0 | 0.02 | 0.04 | 0.04 | 97 | 1012.3 |
| 20260507073341 | 63 | 129 | 2.0 | 3.0 | 0.00 | 0.03 | 0.03 | 97 | 1012.8 |
| 20260507072838 | 63 | 174 | 1.0 | 2.0 | 0.00 | 0.03 | 0.03 | 97 | 1012.9 |
| 20260507072336 | 63 | 156 | 2.0 | 2.0 | 0.00 | 0.03 | 0.03 | 97 | 1012.8 |
| 20260507071833 | 63 | 126 | 1.0 | 2.0 | 0.00 | 0.03 | 0.03 | 97 | 1012.6 |
| 20260507071330 | 63 | 143 | 0.0 | 2.0 | 0.00 | 0.03 | 0.03 | 97 | 1012.5 |
| 20260507070826 | 63 | 75 | 0.0 | 2.0 | 0.00 | 0.03 | 0.03 | 97 | 1012.7 |
| 20260507070324 | 63 | 224 | 0.0 | 2.0 | 0.00 | 0.03 | 0.03 | 97 | 1013.1 |
| 20260507065820 | 63 | 160 | 0.0 | 2.0 | 0.00 | 0.03 | 0.03 | 97 | 1012.8 |
| 20260507065317 | 63 | 154 | 2.0 | 2.0 | 0.00 | 0.03 | 0.03 | 97 | 1012.9 |
| 20260507064814 | 63 | 117 | 0.0 | 2.0 | 0.00 | 0.03 | 0.03 | 97 | 1012.7 |
| 20260507064313 | 63 | 121 | 1.0 | 2.0 | 0.00 | 0.03 | 0.03 | 97 | 1012.9 |
| 20260507063810 | 63 | 155 | 2.0 | 2.0 | 0.00 | 0.03 | 0.03 | 96 | 1012.9 |
| 20260507063307 | 63 | 162 | 2.0 | 2.0 | 0.02 | 0.03 | 0.03 | 96 | 1012.8 |
| 20260507062803 | 63 | 167 | 2.0 | 2.0 | 0.02 | 0.03 | 0.03 | 96 | 1013.0 |
| 20260507062300 | 63 | 163 | 1.0 | 2.0 | 0.00 | 0.03 | 0.03 | 96 | 1013.0 |
| 20260507061759 | 63 | 131 | 0.0 | 1.0 | 0.00 | 0.03 | 0.03 | 96 | 1013.1 |
| 20260507061256 | 63 | 130 | 0.0 | 2.0 | 0.00 | 0.03 | 0.03 | 96 | 1013.1 |